Time,TemperatureF,DewpointF,PressureIn,WindDirection,WindDirectionDegrees,WindSpeedMPH,WindSpeedGustMPH,Humidity,HourlyPrecipIn,Conditions,Clouds,dailyrainin,SoftwareType,DateUTC
2013-01-24 00:02:00,24.0,13.0,30.30,NW,318,10.0,17.0,62,0.00,,,0.00,,2013-01-24 06:02:00,
2013-01-24 00:12:00,24.0,13.0,30.30,NW,318,10.0,17.0,62,0.00,,,0.00,,2013-01-24 06:12:00,
2013-01-24 00:22:00,22.0,11.0,30.32,NW,322,11.0,20.0,62,0.00,,,0.00,,2013-01-24 06:22:00,
2013-01-24 00:32:00,22.0,11.0,30.32,NW,322,11.0,20.0,62,0.00,,,0.00,,2013-01-24 06:32:00,
2013-01-24 00:42:00,22.0,11.0,30.32,NW,322,11.0,20.0,62,0.00,,,0.00,,2013-01-24 06:42:00,
2013-01-24 00:52:00,21.0,11.0,30.33,NNW,337,10.0,13.0,65,0.00,,,0.00,,2013-01-24 06:52:00,
2013-01-24 01:02:00,21.0,11.0,30.33,NNW,337,10.0,13.0,65,0.00,,,0.00,,2013-01-24 07:02:00,
2013-01-24 01:12:00,21.0,11.0,30.33,NNW,337,10.0,13.0,65,0.00,,,0.00,,2013-01-24 07:12:00,
2013-01-24 01:22:00,20.0,10.0,30.37,NNW,336,9.0,13.0,65,0.00,,,0.00,,2013-01-24 07:22:00,
2013-01-24 01:33:00,20.0,10.0,30.37,NNW,336,9.0,13.0,65,0.00,,,0.00,,2013-01-24 07:33:00,
2013-01-24 01:43:00,20.0,10.0,30.37,NNW,336,9.0,13.0,65,0.00,,,0.00,,2013-01-24 07:43:00,
2013-01-24 01:53:00,19.0,9.0,30.39,NNW,331,12.0,17.0,63,0.00,,,0.00,,2013-01-24 07:53:00,
2013-01-24 02:02:00,19.0,9.0,30.39,NNW,331,12.0,17.0,63,0.00,,,0.00,,2013-01-24 08:02:00,
2013-01-24 02:12:00,19.0,9.0,30.39,NNW,331,12.0,17.0,63,0.00,,,0.00,,2013-01-24 08:12:00,
2013-01-24 02:22:00,18.0,9.0,30.40,NW,326,9.0,16.0,66,0.00,,,0.00,,2013-01-24 08:22:00,
2013-01-24 02:33:00,18.0,9.0,30.40,NW,326,9.0,16.0,66,0.00,,,0.00,,2013-01-24 08:33:00,
2013-01-24 02:43:00,18.0,9.0,30.40,NW,326,9.0,16.0,66,0.00,,,0.00,,2013-01-24 08:43:00,
2013-01-24 02:53:00,18.0,9.0,30.42,NNW,342,11.0,17.0,67,0.00,,,0.00,,2013-01-24 08:53:00,
2013-01-24 03:02:00,18.0,9.0,30.42,NNW,342,11.0,17.0,67,0.00,,,0.00,,2013-01-24 09:02:00,
2013-01-24 03:13:00,18.0,9.0,30.42,NNW,342,11.0,17.0,67,0.00,,,0.00,,2013-01-24 09:13:00,
2013-01-24 03:23:00,17.0,8.0,30.44,NNE,21,10.0,17.0,68,0.00,,,0.00,,2013-01-24 09:23:00,
2013-01-24 03:33:00,17.0,8.0,30.44,NNE,21,10.0,17.0,68,0.00,,,0.00,,2013-01-24 09:33:00,
2013-01-24 03:43:00,17.0,8.0,30.44,NNE,21,10.0,17.0,68,0.00,,,0.00,,2013-01-24 09:43:00,
2013-01-24 03:53:00,15.0,5.0,30.45,NNE,22,10.0,13.0,64,0.00,,,0.00,,2013-01-24 09:53:00,
2013-01-24 04:02:00,15.0,5.0,30.45,NNE,22,10.0,13.0,64,0.00,,,0.00,,2013-01-24 10:02:00,
2013-01-24 04:12:00,15.0,5.0,30.45,NNE,22,10.0,13.0,64,0.00,,,0.00,,2013-01-24 10:12:00,
2013-01-24 04:22:00,14.0,2.0,30.45,North,355,9.0,20.0,58,0.00,,,0.00,,2013-01-24 10:22:00,
2013-01-24 04:33:00,14.0,2.0,30.45,North,355,9.0,20.0,58,0.00,,,0.00,,2013-01-24 10:33:00,
2013-01-24 04:43:00,14.0,2.0,30.45,North,355,9.0,20.0,58,0.00,,,0.00,,2013-01-24 10:43:00,
2013-01-24 04:53:00,13.0,2.0,30.47,North,4,10.0,17.0,61,0.00,,,0.00,,2013-01-24 10:53:00,
2013-01-24 05:02:00,13.0,2.0,30.47,North,4,10.0,17.0,61,0.00,,,0.00,,2013-01-24 11:02:00,
2013-01-24 05:12:00,13.0,2.0,30.47,North,4,10.0,17.0,61,0.00,,,0.00,,2013-01-24 11:12:00,
2013-01-24 05:23:00,13.0,2.0,30.49,NW,319,7.0,11.0,62,0.00,,,0.00,,2013-01-24 11:23:00,
2013-01-24 05:33:00,13.0,2.0,30.49,NW,319,7.0,11.0,62,0.00,,,0.00,,2013-01-24 11:33:00,
2013-01-24 05:43:00,13.0,2.0,30.49,NW,319,7.0,11.0,62,0.00,,,0.00,,2013-01-24 11:43:00,
2013-01-24 05:53:00,12.0,2.0,30.51,NNW,337,8.0,14.0,63,0.00,,,0.00,,2013-01-24 11:53:00,
2013-01-24 06:03:00,12.0,2.0,30.51,NNW,337,8.0,14.0,63,0.00,,,0.00,,2013-01-24 12:03:00,
2013-01-24 06:12:00,12.0,2.0,30.51,NNW,337,8.0,14.0,63,0.00,,,0.00,,2013-01-24 12:12:00,
2013-01-24 06:22:00,12.0,2.0,30.53,NNW,341,7.0,14.0,63,0.00,,,0.00,,2013-01-24 12:22:00,
2013-01-24 06:33:00,12.0,2.0,30.53,NNW,341,7.0,14.0,63,0.00,,,0.00,,2013-01-24 12:33:00,
2013-01-24 06:43:00,12.0,2.0,30.53,NNW,341,7.0,14.0,63,0.00,,,0.00,,2013-01-24 12:43:00,
2013-01-24 06:53:00,11.0,2.0,30.53,NNW,340,5.0,13.0,65,0.00,,,0.00,,2013-01-24 12:53:00,
2013-01-24 07:02:00,11.0,2.0,30.53,NNW,340,5.0,13.0,65,0.00,,,0.00,,2013-01-24 13:02:00,
2013-01-24 07:13:00,11.0,2.0,30.53,NNW,340,5.0,13.0,65,0.00,,,0.00,,2013-01-24 13:13:00,
2013-01-24 07:23:00,11.0,2.0,30.53,NNW,340,5.0,13.0,65,0.00,,,0.00,,2013-01-24 13:23:00,
2013-01-24 07:33:00,11.0,2.0,30.53,NNW,340,5.0,13.0,65,0.00,,,0.00,,2013-01-24 13:33:00,
2013-01-24 07:53:00,11.0,1.0,30.56,NNW,337,5.0,10.0,64,0.00,,,0.00,,2013-01-24 13:53:00,
2013-01-24 08:03:00,11.0,1.0,30.56,NNW,337,5.0,10.0,64,0.00,,,0.00,,2013-01-24 14:03:00,
2013-01-24 08:12:00,11.0,1.0,30.56,NNW,337,5.0,10.0,64,0.00,,,0.00,,2013-01-24 14:12:00,
2013-01-24 08:23:00,11.0,1.0,30.57,North,360,4.0,8.0,64,0.00,,,0.00,,2013-01-24 14:23:00,
2013-01-24 08:33:00,11.0,1.0,30.57,North,360,4.0,8.0,64,0.00,,,0.00,,2013-01-24 14:33:00,
2013-01-24 08:43:00,11.0,1.0,30.57,North,360,4.0,8.0,64,0.00,,,0.00,,2013-01-24 14:43:00,
2013-01-24 08:54:00,12.0,2.0,30.58,NNE,21,2.0,7.0,63,0.00,,,0.00,,2013-01-24 14:54:00,
2013-01-24 09:03:00,12.0,2.0,30.58,NNE,21,2.0,7.0,63,0.00,,,0.00,,2013-01-24 15:03:00,
2013-01-24 09:12:00,12.0,2.0,30.58,NNE,21,2.0,7.0,63,0.00,,,0.00,,2013-01-24 15:12:00,
2013-01-24 09:23:00,13.0,2.0,30.61,North,11,3.0,8.0,61,0.00,,,0.00,,2013-01-24 15:23:00,
2013-01-24 09:33:00,13.0,2.0,30.61,North,11,3.0,8.0,61,0.00,,,0.00,,2013-01-24 15:33:00,
2013-01-24 09:43:00,13.0,2.0,30.61,North,11,3.0,8.0,61,0.00,,,0.00,,2013-01-24 15:43:00,
2013-01-24 09:53:00,14.0,2.0,30.61,NE,44,6.0,10.0,59,0.00,,,0.00,,2013-01-24 15:53:00,
2013-01-24 10:03:00,14.0,2.0,30.61,NE,44,6.0,10.0,59,0.00,,,0.00,,2013-01-24 16:03:00,
2013-01-24 10:12:00,14.0,2.0,30.61,NE,44,6.0,10.0,59,0.00,,,0.00,,2013-01-24 16:12:00,
2013-01-24 10:23:00,17.0,6.0,30.60,NE,49,3.0,9.0,60,0.00,,,0.00,,2013-01-24 16:23:00,
2013-01-24 10:33:00,17.0,6.0,30.60,NE,49,3.0,9.0,60,0.00,,,0.00,,2013-01-24 16:33:00,
2013-01-24 10:43:00,17.0,6.0,30.60,NE,49,3.0,9.0,60,0.00,,,0.00,,2013-01-24 16:43:00,
2013-01-24 11:02:00,18.0,6.0,30.60,NNE,29,4.0,10.0,58,0.00,,,0.00,,2013-01-24 17:02:00,
2013-01-24 11:12:00,18.0,6.0,30.60,NNE,29,4.0,10.0,58,0.00,,,0.00,,2013-01-24 17:12:00,
2013-01-24 11:22:00,20.0,7.0,30.59,ENE,71,3.0,5.0,57,0.00,,,0.00,,2013-01-24 17:22:00,
2013-01-24 11:32:00,20.0,7.0,30.59,ENE,71,3.0,5.0,57,0.00,,,0.00,,2013-01-24 17:32:00,
2013-01-24 11:43:00,20.0,7.0,30.59,ENE,71,3.0,5.0,57,0.00,,,0.00,,2013-01-24 17:43:00,
2013-01-24 11:52:00,22.0,8.0,30.58,ENE,58,4.0,9.0,55,0.00,,,0.00,,2013-01-24 17:52:00,
2013-01-24 12:02:00,22.0,8.0,30.58,ENE,58,4.0,9.0,55,0.00,,,0.00,,2013-01-24 18:02:00,
2013-01-24 12:12:00,23.0,9.0,30.56,East,83,5.0,10.0,54,0.00,,,0.00,,2013-01-24 18:12:00,
2013-01-24 12:22:00,23.0,9.0,30.56,East,83,5.0,10.0,54,0.00,,,0.00,,2013-01-24 18:22:00,
2013-01-24 12:32:00,23.0,9.0,30.56,East,83,5.0,10.0,54,0.00,,,0.00,,2013-01-24 18:32:00,
2013-01-24 12:43:00,23.0,9.0,30.56,East,83,5.0,10.0,54,0.00,,,0.00,,2013-01-24 18:43:00,
2013-01-24 12:53:00,23.0,9.0,30.55,East,89,3.0,9.0,54,0.00,,,0.00,,2013-01-24 18:53:00,
2013-01-24 13:02:00,23.0,9.0,30.55,East,89,3.0,9.0,54,0.00,,,0.00,,2013-01-24 19:02:00,
2013-01-24 13:12:00,23.0,9.0,30.54,ESE,122,4.0,7.0,54,0.00,,,0.00,,2013-01-24 19:12:00,
2013-01-24 13:22:00,23.0,9.0,30.54,ESE,122,4.0,7.0,54,0.00,,,0.00,,2013-01-24 19:22:00,
2013-01-24 13:32:00,23.0,9.0,30.54,ESE,122,4.0,7.0,54,0.00,,,0.00,,2013-01-24 19:32:00,
2013-01-24 13:42:00,24.0,9.0,30.52,ESE,108,7.0,11.0,51,0.00,,,0.00,,2013-01-24 19:42:00,
2013-01-24 13:52:00,24.0,9.0,30.52,ESE,108,7.0,11.0,51,0.00,,,0.00,,2013-01-24 19:52:00,
2013-01-24 14:02:00,24.0,9.0,30.52,ESE,108,7.0,11.0,51,0.00,,,0.00,,2013-01-24 20:02:00,
2013-01-24 14:11:00,25.0,9.0,30.49,ENE,62,6.0,12.0,50,0.00,,,0.00,,2013-01-24 20:11:00,
2013-01-24 14:22:00,25.0,9.0,30.49,ENE,62,6.0,12.0,50,0.00,,,0.00,,2013-01-24 20:22:00,
2013-01-24 14:32:00,25.0,9.0,30.49,ENE,62,6.0,12.0,50,0.00,,,0.00,,2013-01-24 20:32:00,
2013-01-24 14:42:00,25.0,9.0,30.50,ENE,75,6.0,9.0,50,0.00,,,0.00,,2013-01-24 20:42:00,
2013-01-24 14:52:00,25.0,9.0,30.50,ENE,75,6.0,9.0,50,0.00,,,0.00,,2013-01-24 20:52:00,
2013-01-24 15:02:00,25.0,9.0,30.50,ENE,75,6.0,9.0,50,0.00,,,0.00,,2013-01-24 21:02:00,
2013-01-24 15:12:00,27.0,10.0,30.48,ENE,60,4.0,14.0,48,0.00,,,0.00,,2013-01-24 21:12:00,
2013-01-24 15:22:00,27.0,10.0,30.48,ENE,60,4.0,14.0,48,0.00,,,0.00,,2013-01-24 21:22:00,
2013-01-24 15:33:00,27.0,10.0,30.48,ENE,60,4.0,14.0,48,0.00,,,0.00,,2013-01-24 21:33:00,
2013-01-24 15:43:00,27.0,10.0,30.48,ENE,60,4.0,14.0,48,0.00,,,0.00,,2013-01-24 21:43:00,
2013-01-24 15:53:00,26.0,9.0,30.46,ESE,116,9.0,13.0,47,0.00,,,0.00,,2013-01-24 21:53:00,
2013-01-24 16:02:00,26.0,9.0,30.46,ESE,116,9.0,13.0,47,0.00,,,0.00,,2013-01-24 22:02:00,
2013-01-24 16:12:00,26.0,9.0,30.46,ESE,116,9.0,13.0,47,0.00,,,0.00,,2013-01-24 22:12:00,
2013-01-24 16:22:00,26.0,8.0,30.45,East,93,7.0,14.0,46,0.00,,,0.00,,2013-01-24 22:22:00,
2013-01-24 16:32:00,26.0,8.0,30.45,East,93,7.0,14.0,46,0.00,,,0.00,,2013-01-24 22:32:00,
2013-01-24 16:42:00,26.0,8.0,30.45,East,93,7.0,14.0,46,0.00,,,0.00,,2013-01-24 22:42:00,
2013-01-24 16:53:00,25.0,8.0,30.46,ESE,105,6.0,10.0,47,0.00,,,0.00,,2013-01-24 22:53:00,
2013-01-24 17:02:00,25.0,8.0,30.46,ESE,105,6.0,10.0,47,0.00,,,0.00,,2013-01-24 23:02:00,
2013-01-24 17:12:00,25.0,8.0,30.46,ESE,105,6.0,10.0,47,0.00,,,0.00,,2013-01-24 23:12:00,
2013-01-24 17:22:00,25.0,8.0,30.44,East,100,6.0,10.0,47,0.00,,,0.00,,2013-01-24 23:22:00,
2013-01-24 17:32:00,25.0,8.0,30.44,East,100,6.0,10.0,47,0.00,,,0.00,,2013-01-24 23:32:00,
2013-01-24 17:42:00,25.0,8.0,30.44,East,100,6.0,10.0,47,0.00,,,0.00,,2013-01-24 23:42:00,
2013-01-24 17:52:00,24.0,8.0,30.43,SE,133,4.0,13.0,50,0.00,,,0.00,,2013-01-24 23:52:00,
2013-01-24 18:02:00,24.0,8.0,30.43,SE,133,4.0,13.0,50,0.00,,,0.00,,2013-01-25 00:02:00,
2013-01-24 18:12:00,24.0,8.0,30.43,SE,133,4.0,13.0,50,0.00,,,0.00,,2013-01-25 00:12:00,
2013-01-24 18:22:00,24.0,9.0,30.42,East,93,4.0,10.0,53,0.00,,,0.00,,2013-01-25 00:22:00,
2013-01-24 18:32:00,24.0,9.0,30.42,East,93,4.0,10.0,53,0.00,,,0.00,,2013-01-25 00:32:00,
2013-01-24 18:42:00,24.0,9.0,30.42,East,93,4.0,10.0,53,0.00,,,0.00,,2013-01-25 00:42:00,
2013-01-24 18:52:00,24.0,10.0,30.42,East,91,6.0,10.0,54,0.00,,,0.00,,2013-01-25 00:52:00,
2013-01-24 19:01:00,24.0,10.0,30.42,East,91,6.0,10.0,54,0.00,,,0.00,,2013-01-25 01:01:00,
2013-01-24 19:12:00,24.0,10.0,30.42,East,91,6.0,10.0,54,0.00,,,0.00,,2013-01-25 01:12:00,
2013-01-24 19:21:00,24.0,10.0,30.42,East,91,6.0,10.0,54,0.00,,,0.00,,2013-01-25 01:21:00,
2013-01-24 19:32:00,24.0,10.0,30.42,East,91,6.0,10.0,54,0.00,,,0.00,,2013-01-25 01:32:00,
2013-01-24 20:22:00,24.0,9.0,30.38,East,98,5.0,11.0,52,0.00,,,0.00,,2013-01-25 02:22:00,
2013-01-24 20:33:00,24.0,9.0,30.38,East,98,5.0,11.0,52,0.00,,,0.00,,2013-01-25 02:33:00,
2013-01-24 20:43:00,24.0,9.0,30.37,ESE,112,4.0,10.0,52,0.00,,,0.00,,2013-01-25 02:43:00,
2013-01-24 20:52:00,24.0,9.0,30.37,ESE,112,4.0,10.0,52,0.00,,,0.00,,2013-01-25 02:52:00,
2013-01-24 21:02:00,24.0,9.0,30.37,ESE,112,4.0,10.0,52,0.00,,,0.00,,2013-01-25 03:02:00,
2013-01-24 21:12:00,24.0,9.0,30.36,East,101,5.0,9.0,51,0.00,,,0.00,,2013-01-25 03:12:00,
2013-01-24 21:22:00,24.0,9.0,30.36,East,101,5.0,9.0,51,0.00,,,0.00,,2013-01-25 03:22:00,
2013-01-24 21:32:00,24.0,9.0,30.36,East,101,5.0,9.0,51,0.00,,,0.00,,2013-01-25 03:32:00,
2013-01-24 21:42:00,24.0,9.0,30.36,East,101,5.0,9.0,51,0.00,,,0.00,,2013-01-25 03:42:00,
2013-01-24 21:52:00,24.0,9.0,30.34,SE,130,6.0,12.0,51,0.00,,,0.00,,2013-01-25 03:52:00,
2013-01-24 22:02:00,24.0,9.0,30.34,SE,130,6.0,12.0,51,0.00,,,0.00,,2013-01-25 04:02:00,
2013-01-24 22:12:00,24.0,8.0,30.30,ESE,115,5.0,11.0,50,0.00,,,0.00,,2013-01-25 04:12:00,
2013-01-24 22:22:00,24.0,8.0,30.30,ESE,115,5.0,11.0,50,0.00,,,0.00,,2013-01-25 04:22:00,
2013-01-24 22:32:00,24.0,8.0,30.30,ESE,115,5.0,11.0,50,0.00,,,0.00,,2013-01-25 04:32:00,
2013-01-24 22:42:00,24.0,8.0,30.30,ESE,115,5.0,11.0,50,0.00,,,0.00,,2013-01-25 04:42:00,
2013-01-24 22:52:00,24.0,7.0,30.32,ESE,121,5.0,10.0,48,0.00,,,0.00,,2013-01-25 04:52:00,
2013-01-24 23:03:00,24.0,7.0,30.32,ESE,121,5.0,10.0,48,0.00,,,0.00,,2013-01-25 05:03:00,
2013-01-24 23:12:00,24.0,6.0,30.31,SSE,148,8.0,13.0,45,0.00,,,0.00,,2013-01-25 05:12:00,
2013-01-24 23:22:00,24.0,6.0,30.31,SSE,148,8.0,13.0,45,0.00,,,0.00,,2013-01-25 05:22:00,
2013-01-24 23:32:00,24.0,6.0,30.31,SSE,148,8.0,13.0,45,0.00,,,0.00,,2013-01-25 05:32:00,
2013-01-24 23:43:00,24.0,6.0,30.31,SSE,148,8.0,13.0,45,0.00,,,0.00,,2013-01-25 05:43:00,
2013-01-24 23:52:00,24.0,5.0,30.32,East,98,7.0,11.0,43,0.00,,,0.00,,2013-01-25 05:52:00,